SL-6 R/B(2), 13169

Orbit data source: Space-Track

SL-6 R/B(2), 13169 is space debris in HEO originally from a launch on Wed, 07 Apr 1982 UTC launched from the Plesetsk Missile And Space Complex (PKMTR). Debris objects in space refer to the collection of defunct objects orbiting the Earth. Examples of debris include non-operational satellites, rocket bodies, and fragments generated from explosions, collisions, or faulty payload assembly.

Loading next visibility...
Identifier
13169, 1982-029D
Orbit
HEO
Country
Flag of CISCIS
Related business
Manufacturer
NPO Energiya
Mission
Spacecraft
Bus & Motor
BLOK-L, Unknown motor
Mass
900 kg wet, 900 kg dry
Launch date (UTC)
1982-04-07 (44 years ago)
Launch vehicle
Unknown
Launch site
Plesetsk Missile And Space Complex (PKMTR)
Object type
Payload
Rocket body
Debris
Shape & HBR
Unknown
Radar Cross Section
Large (>1 m²)

Expand to show TLE details & history
Last TLE update: 4 days ago

TLE from 4 days ago
0 SL-6 R/B(2)
1 13169U 82029D   26169.92146511 -.00000660  00000-0  00000-0 0  9997
2 13169  71.9816 327.4422 5338426 311.1018  13.5820  2.04141923329025
Epoch: 2026-06-18T22:06Z
TLE epoch observation values (Epoch: 2026-06-18T22:06:54.585Z)
Latitude
0.00034°
Longitude
88.54156°
Altitude
7,508.332 km
Speed
6.498 km/s
True Right ascension
21h 49m 42s
True Declination
0° 00' 01"
Sunlit
Object was in daylight at epoch
Visualization orbit readout
Latitude
Unknown
Longitude
Unknown
Altitude
Unknown
Speed
Unknown
Apparent Right ascension
Unknown
Apparent Declination
Unknown
Sunlit
N/A
Visualization observer readout
Local Sidereal Time
02:18:51
Azimuth
Unknown
Elevation
Unknown
Doppler factor
Unknown
Orbital elements
Apogee altitude
33,882.292 km
Perigee altitude
5,857.602 km
Semi-major axis
26,248.084 km
Eccentricity
0.53384
Inclination
71.9816°
RAAN
327.4422°
Arg. of periapsis
311.1018°
True anomaly
48.49478°
Mean anomaly
13.582°
Eccentric anomaly
27.88965°
Mean motion
0.51038 °/min
Orbital period
705.35 mins
BSTAR
0
Loading maneuver chart data...
Computing Atmospheric mass density...
Loading historical data...
Loading historical data...
Loading historical data...
Loading historical data...
Loading historical data...
Loading historical data...
Loading historical data...

Documentation

Showing up to 5 results
|